Hurghada, Egypt

1:54 PM EET on July 28, 2016 (GMT +0200)
Hurghada International

Weather History for HEGN - March, 2014

Change the Weather History Date:

Thursday, March 6, 2014

  Actual Average Record
Temperature  
Mean Temperature 73 °F -  
Max Temperature 88 °F 76 °F 88 °F (2014)
Min Temperature 58 °F 59 °F 53 °F (2005)
Cooling Degree Days 8    
Growing Degree Days 23 (Base 50)    
Moisture  
Dew Point 52 °F    
Average Humidity 47    
Maximum Humidity 69    
Minimum Humidity 28    
Precipitation  
Precipitation 0.00 in - - ()
Sea Level Pressure  
Sea Level Pressure 29.95 in    
Wind  
Wind Speed 2 mph ()    
Max Wind Speed 12 mph    
Max Gust Speed -    
Visibility 4.7 miles    
Events      
Averages and records for this station are not official NWS values.
T = Trace of Precipitation, MM = Missing Value Source: Averaged Metar Reports

Daily Weather History Graph

Daily Weather History Graph

Search for Another Location

Airport or City:

Trip Planner

Search our weather history database for the weather conditions in past years. The results will help you decide how hot, cold, wet, or windy it might be!

Date:

Astronomy

Mar. 06, 2014 Rise Set
Actual Time 6:04 AM EET 5:48 PM EET
Civil Twilight 5:40 AM EET 6:11 PM EET
Nautical Twilight 5:13 AM EET 6:38 PM EET
Astronomical Twilight 4:46 AM EET 7:05 PM EET
Moon 9:26 AM EET (3/6) 11:03 PM EET (3/6)
Length of Visible Light 12h 30m
Length of Day
11h 44m
Waxing Crescent, 29% of the Moon is Illuminated
Mar 6
Waxing Crescent
Mar 8
First Quarter
Mar 16
Full
Mar 24
Last Quarter
Mar 30
New

Hourly Weather History & Observations

Time (EET) Temp. Heat Index Dew Point Humidity Pressure Visibility Wind Dir Wind Speed Gust Speed Precip Events Conditions
12:00 AM 64.4 °F - 32.0 °F 30% 29.89 in - Calm Calm - N/A   Clear
1:00 AM 64.4 °F - 39.2 °F 40% 29.95 in - Calm Calm - N/A   Clear
2:00 AM 64 °F - 39 °F 28% 29.94 in 6 mi Calm Calm - -  
2:00 AM 64.4 °F - 39.2 °F 40% 29.92 in - Calm Calm - N/A   Clear
3:00 AM 60.8 °F - 37.4 °F 42% 29.95 in - Calm Calm - N/A   Clear
4:00 AM 62.6 °F - 39.2 °F 42% 29.95 in - Calm Calm - N/A   Clear
5:00 AM 60 °F - 39 °F 34% 29.96 in 6 mi Calm Calm - -  
5:00 AM 59.0 °F - 39.2 °F 48% 29.95 in - Calm Calm - N/A   Clear
6:00 AM 59.0 °F - 41.0 °F 51% 29.98 in - Calm Calm - N/A   Clear
7:00 AM 60.8 °F - 42.8 °F 52% 29.98 in - Calm Calm - N/A   Clear
8:00 AM 69 °F - 47 °F 35% 29.99 in 5 mi Calm Calm - -   Haze
8:00 AM 68.0 °F - 48.2 °F 49% 29.98 in 5.0 mi Calm Calm - N/A   Unknown
9:00 AM 77.0 °F - 66.2 °F 69% 30.01 in 5.0 mi South 2.3 mph - N/A   Unknown
10:00 AM 84.2 °F 85.6 °F 64.4 °F 51% 30.01 in 5.0 mi SE 5.8 mph - N/A   Unknown
11:00 AM 83 °F - 68 °F 52% 30.00 in 5 mi SE 6.9 mph - -   Haze
11:00 AM 82.4 °F 85.4 °F 68.0 °F 62% 29.98 in 5.0 mi SE 6.9 mph - N/A   Unknown
12:00 PM 86.0 °F 88.2 °F 66.2 °F 51% 29.95 in 3.7 mi ESE 6.9 mph - N/A   Unknown
1:00 PM 86.0 °F 89.4 °F 68.0 °F 55% 29.95 in 3.7 mi ESE 6.9 mph - N/A   Unknown
2:00 PM 87 °F - 63 °F 35% 29.95 in 4 mi ESE 11.5 mph - -   Haze
2:00 PM 87.8 °F 88.5 °F 62.6 °F 43% 29.95 in 3.7 mi ESE 11.5 mph - N/A   Unknown
3:00 PM 86.0 °F 85.4 °F 59.0 °F 40% 29.92 in 5.0 mi ESE 6.9 mph - N/A   Unknown
4:00 PM 84.2 °F 83.8 °F 59.0 °F 42% 29.92 in 3.7 mi SE 6.9 mph - N/A   Unknown
5:00 PM 83 °F - 57 °F 30% 29.94 in 4 mi SE 3.5 mph - -   Haze
5:00 PM 82.4 °F 82.0 °F 57.2 °F 42% 29.92 in 3.7 mi SE 3.5 mph - N/A   Unknown
6:00 PM 75.2 °F - 55.4 °F 50% 29.92 in 3.7 mi Calm Calm - N/A   Unknown
7:00 PM 73.4 °F - 60.8 °F 65% 29.95 in 5.0 mi Calm Calm - N/A   Unknown
8:00 PM 72 °F - 60 °F 56% 29.95 in 5 mi Calm Calm - -   Haze
8:00 PM 71.6 °F - 59.0 °F 64% 29.95 in 5.0 mi Calm Calm - N/A   Unknown
9:00 PM 71.6 °F - 57.2 °F 60% 29.95 in 5.0 mi Calm Calm - N/A   Unknown
10:00 PM 68.0 °F - 50.0 °F 52% 29.95 in 5.0 mi Calm Calm - N/A   Unknown
11:00 PM 69 °F - 47 °F 34% 29.95 in 5 mi WSW 4.6 mph - -   Haze
11:00 PM 68.0 °F - 46.4 °F 46% 29.95 in 5.0 mi WSW 4.6 mph - N/A   Unknown